,,,PA_Meas_PMT16A,,PR_Meas_QMR101_102,,RH_Meas_QMH101,,SR_Meas_QMS101,,TA_Meas_QMH101,,GenWind,,GenWind,
date,time,status,PA,status,PR,status,RH,status,SR,status,TA,status,DirAvg,status,SpdAvg,
2011-05-18, 00:00:05,VALID,1010.745,VALID,0.0,VALID,102.742,VALID,0.106,VALID,23.967,VALID,228.0,VALID,0.018,
2011-05-18, 00:01:05,VALID,1010.721,VALID,0.0,VALID,102.742,VALID,0.106,VALID,23.965,VALID,228.0,VALID,0.356,
2011-05-18, 00:02:05,VALID,1010.688,VALID,0.0,VALID,102.772,VALID,0.106,VALID,23.926,VALID,228.0,VALID,0.381,
2011-05-18, 00:03:05,VALID,1010.691,VALID,0.0,VALID,102.772,VALID,0.0,VALID,23.926,VALID,228.0,VALID,0.207,
2011-05-18, 00:04:05,VALID,1010.668,VALID,0.0,VALID,102.749,VALID,0.106,VALID,23.907,VALID,228.0,VALID,0.002,
2011-05-18, 00:05:05,VALID,1010.654,VALID,0.0,VALID,102.765,VALID,0.106,VALID,23.907,VALID,228.0,VALID,0.0,
2011-05-18, 00:06:05,VALID,1010.663,VALID,0.0,VALID,102.788,VALID,0.106,VALID,23.908,VALID,228.0,VALID,0.0,
2011-05-18, 00:07:05,VALID,1010.679,VALID,0.0,VALID,102.788,VALID,0.0,VALID,23.868,VALID,228.0,VALID,0.0,
2011-05-18, 00:08:05,VALID,1010.663,VALID,0.0,VALID,102.772,VALID,0.106,VALID,23.868,VALID,228.0,VALID,0.0,
2011-05-18, 00:09:05,VALID,1010.671,VALID,0.0,VALID,102.734,VALID,0.106,VALID,23.868,VALID,228.0,VALID,0.0,
2011-05-18, 00:10:05,VALID,1010.686,VALID,0.0,VALID,102.727,VALID,0.106,VALID,23.887,VALID,228.0,VALID,0.0,
2011-05-18, 00:11:05,VALID,1010.647,VALID,0.0,VALID,102.719,VALID,0.0,VALID,23.928,VALID,228.0,VALID,0.0,
2011-05-18, 00:12:05,VALID,1010.647,VALID,0.0,VALID,102.688,VALID,0.0,VALID,23.928,VALID,228.0,VALID,0.184,
2011-05-18, 00:13:05,VALID,1010.65,VALID,0.0,VALID,102.688,VALID,0.0,VALID,23.928,VALID,228.0,VALID,0.077,
2011-05-18, 00:14:05,VALID,1010.589,VALID,0.0,VALID,102.681,VALID,0.0,VALID,23.947,VALID,228.0,VALID,0.0,
2011-05-18, 00:15:05,VALID,1010.598,VALID,0.0,VALID,102.658,VALID,0.0,VALID,23.947,VALID,228.0,VALID,0.0,
2011-05-18, 00:16:05,VALID,1010.59,VALID,0.0,VALID,102.635,VALID,0.0,VALID,23.986,VALID,228.0,VALID,0.0,
2011-05-18, 00:17:05,VALID,1010.601,VALID,0.0,VALID,102.635,VALID,0.0,VALID,24.006,VALID,228.0,VALID,0.945,
2011-05-18, 00:18:05,VALID,1010.609,VALID,0.0,VALID,102.688,VALID,0.0,VALID,23.967,VALID,62.0,VALID,0.893,
2011-05-18, 00:19:05,VALID,1010.617,VALID,0.0,VALID,102.727,VALID,0.0,VALID,23.947,VALID,72.0,VALID,0.669,
2011-05-18, 00:20:05,VALID,1010.611,VALID,0.0,VALID,102.757,VALID,0.0,VALID,23.928,VALID,95.0,VALID,0.655,
2011-05-18, 00:21:05,VALID,1010.591,VALID,0.0,VALID,102.727,VALID,0.0,VALID,23.928,VALID,95.0,VALID,0.187,
2011-05-18, 00:22:05,VALID,1010.563,VALID,0.0,VALID,102.749,VALID,0.0,VALID,23.908,VALID,54.0,VALID,0.41,
2011-05-18, 00:23:05,VALID,1010.534,VALID,0.0,VALID,102.818,VALID,0.0,VALID,23.85,VALID,20.0,VALID,0.0,
2011-05-18, 00:24:05,VALID,1010.519,VALID,0.0,VALID,102.772,VALID,0.0,VALID,23.83,VALID,20.0,VALID,0.0,
2011-05-18, 00:25:05,VALID,1010.507,VALID,0.0,VALID,102.788,VALID,0.0,VALID,23.83,VALID,20.0,VALID,0.0,
2011-05-18, 00:26:05,VALID,1010.522,VALID,0.0,VALID,102.765,VALID,0.0,VALID,23.83,VALID,20.0,VALID,0.0,
2011-05-18, 00:27:05,VALID,1010.501,VALID,0.0,VALID,102.711,VALID,0.0,VALID,23.869,VALID,21.0,VALID,0.434,
2011-05-18, 00:28:05,VALID,1010.497,VALID,0.0,VALID,102.681,VALID,0.0,VALID,23.889,VALID,59.0,VALID,0.368,
2011-05-18, 00:29:05,VALID,1010.523,VALID,0.0,VALID,102.749,VALID,0.0,VALID,23.85,VALID,59.0,VALID,0.43,
2011-05-18, 00:30:05,VALID,1010.507,VALID,0.0,VALID,102.788,VALID,0.0,VALID,23.832,VALID,19.0,VALID,0.277,
2011-05-18, 00:31:05,VALID,1010.49,VALID,0.0,VALID,102.757,VALID,0.0,VALID,23.811,VALID,19.0,VALID,0.0,
2011-05-18, 00:32:05,VALID,1010.505,VALID,0.0,VALID,102.765,VALID,0.0,VALID,23.83,VALID,19.0,VALID,0.0,
2011-05-18, 00:33:05,VALID,1010.468,VALID,0.0,VALID,102.734,VALID,0.0,VALID,23.811,VALID,19.0,VALID,0.0,
2011-05-18, 00:34:05,VALID,1010.505,VALID,0.0,VALID,102.742,VALID,0.0,VALID,23.811,VALID,27.0,VALID,0.637,
2011-05-18, 00:35:05,VALID,1010.464,VALID,0.0,VALID,102.734,VALID,0.0,VALID,23.811,VALID,75.0,VALID,0.947,
2011-05-18, 00:36:05,VALID,1010.471,VALID,0.0,VALID,102.727,VALID,0.0,VALID,23.811,VALID,76.0,VALID,0.982,
2011-05-18, 00:37:05,VALID,1010.486,VALID,0.0,VALID,102.658,VALID,0.0,VALID,23.85,VALID,93.0,VALID,1.181,
2011-05-18, 00:38:05,VALID,1010.463,VALID,0.0,VALID,102.711,VALID,0.0,VALID,23.83,VALID,93.0,VALID,1.7,
2011-05-18, 00:39:05,VALID,1010.456,VALID,0.0,VALID,102.765,VALID,0.0,VALID,23.791,VALID,99.0,VALID,1.229,
2011-05-18, 00:40:05,VALID,1010.48,VALID,0.0,VALID,102.688,VALID,0.0,VALID,23.871,VALID,97.0,VALID,1.233,
2011-05-18, 00:41:05,VALID,1010.475,VALID,0.0,VALID,102.658,VALID,0.0,VALID,23.869,VALID,85.0,VALID,1.312,
2011-05-18, 00:42:05,VALID,1010.451,VALID,0.0,VALID,102.704,VALID,0.0,VALID,23.871,VALID,108.0,VALID,1.921,
2011-05-18, 00:43:05,VALID,1010.441,VALID,0.0,VALID,102.742,VALID,0.0,VALID,23.811,VALID,113.0,VALID,1.771,
2011-05-18, 00:44:05,VALID,1010.404,VALID,0.0,VALID,102.704,VALID,0.0,VALID,23.83,VALID,100.0,VALID,1.671,
2011-05-18, 00:45:05,VALID,1010.365,VALID,0.0,VALID,102.78,VALID,0.0,VALID,23.793,VALID,107.0,VALID,1.97,
2011-05-18, 00:46:05,VALID,1010.376,VALID,0.0,VALID,102.749,VALID,0.0,VALID,23.791,VALID,95.0,VALID,1.719,
2011-05-18, 00:47:05,VALID,1010.325,VALID,0.0,VALID,102.803,VALID,0.0,VALID,23.752,VALID,111.0,VALID,1.78,
2011-05-18, 00:48:05,VALID,1010.316,VALID,0.0,VALID,102.765,VALID,0.0,VALID,23.772,VALID,107.0,VALID,1.723,
2011-05-18, 00:49:05,VALID,1010.249,VALID,0.0,VALID,102.742,VALID,0.0,VALID,23.793,VALID,97.0,VALID,2.03,
2011-05-18, 00:50:05,VALID,1010.228,VALID,0.0,VALID,102.742,VALID,0.0,VALID,23.791,VALID,111.0,VALID,1.773,
2011-05-18, 00:51:05,VALID,1010.209,VALID,0.0,VALID,102.711,VALID,0.0,VALID,23.811,VALID,116.0,VALID,1.132,
2011-05-18, 00:52:05,VALID,1010.204,VALID,0.0,VALID,102.727,VALID,0.0,VALID,23.811,VALID,100.0,VALID,1.329,
2011-05-18, 00:53:05,VALID,1010.158,VALID,0.0,VALID,102.757,VALID,0.0,VALID,23.791,VALID,87.0,VALID,1.58,
2011-05-18, 00:54:05,VALID,1010.16,VALID,0.0,VALID,102.765,VALID,0.0,VALID,23.772,VALID,87.0,VALID,1.056,
2011-05-18, 00:55:05,VALID,1010.135,VALID,0.0,VALID,102.734,VALID,0.0,VALID,23.811,VALID,72.0,VALID,1.127,
2011-05-18, 00:56:05,VALID,1010.118,VALID,0.0,VALID,102.78,VALID,0.0,VALID,23.791,VALID,55.0,VALID,1.211,
2011-05-18, 00:57:05,VALID,1010.11,VALID,0.0,VALID,102.795,VALID,0.0,VALID,23.791,VALID,80.0,VALID,0.884,
2011-05-18, 00:58:05,VALID,1010.085,VALID,0.0,VALID,102.803,VALID,0.0,VALID,23.791,VALID,83.0,VALID,0.596,
2011-05-18, 00:59:05,VALID,1010.106,VALID,0.0,VALID,102.81,VALID,0.0,VALID,23.791,VALID,83.0,VALID,0.418,
2011-05-18, 01:00:05,VALID,1010.1,VALID,0.0,VALID,102.788,VALID,0.0,VALID,23.77,VALID,83.0,VALID,0.511,
2011-05-18, 01:01:05,VALID,1010.105,VALID,0.0,VALID,102.772,VALID,0.0,VALID,23.811,VALID,83.0,VALID,0.609,
2011-05-18, 01:02:05,VALID,1010.093,VALID,0.0,VALID,102.772,VALID,0.0,VALID,23.811,VALID,89.0,VALID,0.502,
2011-05-18, 01:03:05,VALID,1010.08,VALID,0.0,VALID,102.757,VALID,0.0,VALID,23.811,VALID,76.0,VALID,0.754,
2011-05-18, 01:04:05,VALID,1010.055,VALID,0.0,VALID,102.795,VALID,0.0,VALID,23.811,VALID,76.0,VALID,0.676,
2011-05-18, 01:05:05,VALID,1010.047,VALID,0.0,VALID,102.795,VALID,0.0,VALID,23.772,VALID,76.0,VALID,0.641,
2011-05-18, 01:06:05,VALID,1010.039,VALID,0.0,VALID,102.772,VALID,0.0,VALID,23.791,VALID,76.0,VALID,0.0,
2011-05-18, 01:07:05,VALID,1010.004,VALID,0.0,VALID,102.749,VALID,0.0,VALID,23.811,VALID,41.0,VALID,0.725,
2011-05-18, 01:08:05,VALID,1010.014,VALID,0.0,VALID,102.757,VALID,0.0,VALID,23.791,VALID,40.0,VALID,0.0,
2011-05-18, 01:09:05,VALID,1009.999,VALID,0.0,VALID,102.749,VALID,0.0,VALID,23.791,VALID,40.0,VALID,0.0,
2011-05-18, 01:10:05,VALID,1009.992,VALID,0.0,VALID,102.749,VALID,0.0,VALID,23.832,VALID,40.0,VALID,0.072,
2011-05-18, 01:11:05,VALID,1009.995,VALID,0.0,VALID,102.742,VALID,0.0,VALID,23.79,VALID,40.0,VALID,0.0,
2011-05-18, 01:12:05,VALID,1010.007,VALID,0.0,VALID,102.742,VALID,0.0,VALID,23.79,VALID,40.0,VALID,0.0,
2011-05-18, 01:13:05,VALID,1010.001,VALID,0.0,VALID,102.749,VALID,0.0,VALID,23.811,VALID,40.0,VALID,0.0,
2011-05-18, 01:14:05,VALID,1009.997,VALID,0.0,VALID,102.719,VALID,0.0,VALID,23.83,VALID,40.0,VALID,0.311,
2011-05-18, 01:15:05,VALID,1009.981,VALID,0.0,VALID,102.719,VALID,0.0,VALID,23.809,VALID,40.0,VALID,0.012,
2011-05-18, 01:16:05,VALID,1010.017,VALID,0.0,VALID,102.704,VALID,0.0,VALID,23.83,VALID,40.0,VALID,0.0,
2011-05-18, 01:17:05,VALID,1009.997,VALID,0.0,VALID,102.711,VALID,0.106,VALID,23.83,VALID,40.0,VALID,0.0,
2011-05-18, 01:18:05,VALID,1010.0,VALID,0.0,VALID,102.696,VALID,0.0,VALID,23.829,VALID,40.0,VALID,0.0,
2011-05-18, 01:19:05,VALID,1010.013,VALID,0.0,VALID,102.711,VALID,0.0,VALID,23.85,VALID,40.0,VALID,0.0,
2011-05-18, 01:20:05,VALID,1010.013,VALID,0.0,VALID,102.704,VALID,0.106,VALID,23.869,VALID,40.0,VALID,0.378,
2011-05-18, 01:21:05,VALID,1010.006,VALID,0.0,VALID,102.742,VALID,0.0,VALID,23.809,VALID,40.0,VALID,0.446,
2011-05-18, 01:22:05,VALID,1010.02,VALID,0.0,VALID,102.727,VALID,0.0,VALID,23.83,VALID,40.0,VALID,0.237,
2011-05-18, 01:23:05,VALID,1010.002,VALID,0.0,VALID,102.688,VALID,0.0,VALID,23.83,VALID,40.0,VALID,0.341,
2011-05-18, 01:24:05,VALID,1009.993,VALID,0.0,VALID,102.673,VALID,0.0,VALID,23.85,VALID,40.0,VALID,0.085,
2011-05-18, 01:25:05,VALID,1010.018,VALID,0.0,VALID,102.681,VALID,0.0,VALID,23.848,VALID,40.0,VALID,0.376,
2011-05-18, 01:26:05,VALID,1010.001,VALID,0.0,VALID,102.681,VALID,0.0,VALID,23.85,VALID,40.0,VALID,0.273,
2011-05-18, 01:27:05,VALID,1010.02,VALID,0.0,VALID,102.681,VALID,0.0,VALID,23.85,VALID,40.0,VALID,0.467,
2011-05-18, 01:28:05,VALID,1010.035,VALID,0.5,VALID,102.666,VALID,0.0,VALID,23.85,VALID,40.0,VALID,0.439,
2011-05-18, 01:29:05,VALID,1010.037,VALID,0.0,VALID,102.658,VALID,0.0,VALID,23.869,VALID,40.0,VALID,0.442,
2011-05-18, 01:30:05,VALID,1010.042,VALID,0.0,VALID,102.666,VALID,0.106,VALID,23.85,VALID,66.0,VALID,0.816,
2011-05-18, 01:31:05,VALID,1010.068,VALID,0.0,VALID,102.711,VALID,0.0,VALID,23.85,VALID,62.0,VALID,0.518,
2011-05-18, 01:32:05,VALID,1010.057,VALID,0.0,VALID,102.673,VALID,0.0,VALID,23.83,VALID,78.0,VALID,0.669,
2011-05-18, 01:33:05,VALID,1010.061,VALID,0.0,VALID,102.704,VALID,0.106,VALID,23.809,VALID,81.0,VALID,0.385,
2011-05-18, 01:34:05,VALID,1010.08,VALID,0.0,VALID,102.688,VALID,0.106,VALID,23.809,VALID,30.0,VALID,0.533,
2011-05-18, 01:35:05,VALID,1010.042,VALID,0.0,VALID,102.711,VALID,0.0,VALID,23.811,VALID,83.0,VALID,0.52,
2011-05-18, 01:36:05,VALID,1010.031,VALID,0.0,VALID,102.742,VALID,0.106,VALID,23.77,VALID,78.0,VALID,0.742,
2011-05-18, 01:37:05,VALID,1010.035,VALID,0.0,VALID,102.719,VALID,0.106,VALID,23.77,VALID,72.0,VALID,0.554,
2011-05-18, 01:38:05,VALID,1010.018,VALID,0.5,VALID,102.757,VALID,0.106,VALID,23.772,VALID,57.0,VALID,0.534,
2011-05-18, 01:39:05,VALID,1010.021,VALID,0.0,VALID,102.772,VALID,0.106,VALID,23.731,VALID,41.0,VALID,0.306,
2011-05-18, 01:40:05,VALID,1010.013,VALID,0.0,VALID,102.757,VALID,0.106,VALID,23.733,VALID,16.0,VALID,0.357,
2011-05-18, 01:41:05,VALID,1009.988,VALID,0.0,VALID,102.757,VALID,0.0,VALID,23.733,VALID,31.0,VALID,0.451,
2011-05-18, 01:42:05,VALID,1010.005,VALID,0.0,VALID,102.765,VALID,0.0,VALID,23.692,VALID,86.0,VALID,0.743,
2011-05-18, 01:43:05,VALID,1009.957,VALID,0.0,VALID,102.78,VALID,0.106,VALID,23.692,VALID,26.0,VALID,0.473,
2011-05-18, 01:44:05,VALID,1009.947,VALID,0.5,VALID,102.788,VALID,0.0,VALID,23.673,VALID,44.0,VALID,0.24,
2011-05-18, 01:45:05,VALID,1009.905,VALID,0.0,VALID,102.78,VALID,0.0,VALID,23.675,VALID,78.0,VALID,0.012,
2011-05-18, 01:46:05,VALID,1009.895,VALID,0.0,VALID,102.772,VALID,0.106,VALID,23.694,VALID,78.0,VALID,0.001,
2011-05-18, 01:47:05,VALID,1009.845,VALID,0.0,VALID,102.742,VALID,0.0,VALID,23.694,VALID,78.0,VALID,0.218,
2011-05-18, 01:48:05,VALID,1009.848,VALID,0.0,VALID,102.749,VALID,0.106,VALID,23.653,VALID,63.0,VALID,0.31,
2011-05-18, 01:49:05,VALID,1009.787,VALID,0.5,VALID,102.734,VALID,0.0,VALID,23.653,VALID,55.0,VALID,0.0,
2011-05-18, 01:50:05,VALID,1009.752,VALID,0.0,VALID,102.727,VALID,0.0,VALID,23.694,VALID,55.0,VALID,0.195,
2011-05-18, 01:51:05,VALID,1009.743,VALID,0.0,VALID,102.734,VALID,0.106,VALID,23.675,VALID,50.0,VALID,0.132,
2011-05-18, 01:52:05,VALID,1009.72,VALID,0.0,VALID,102.719,VALID,0.106,VALID,23.675,VALID,2.0,VALID,0.172,
2011-05-18, 01:53:05,VALID,1009.718,VALID,0.0,VALID,102.719,VALID,0.106,VALID,23.653,VALID,2.0,VALID,0.0,
2011-05-18, 01:54:05,VALID,1009.729,VALID,0.0,VALID,102.704,VALID,0.106,VALID,23.694,VALID,2.0,VALID,0.0,
2011-05-18, 01:55:04,VALID,1009.748,VALID,0.5,VALID,102.727,VALID,0.0,VALID,23.675,VALID,2.0,VALID,0.0,
2011-05-18, 01:56:04,VALID,1009.768,VALID,0.0,VALID,102.711,VALID,0.0,VALID,23.653,VALID,2.0,VALID,0.0,
2011-05-18, 01:57:04,VALID,1009.768,VALID,0.0,VALID,102.727,VALID,0.0,VALID,23.653,VALID,2.0,VALID,0.0,
2011-05-18, 01:58:04,VALID,1009.754,VALID,0.0,VALID,102.719,VALID,0.0,VALID,23.655,VALID,2.0,VALID,0.0,
2011-05-18, 01:59:04,VALID,1009.755,VALID,0.0,VALID,102.688,VALID,0.0,VALID,23.614,VALID,2.0,VALID,0.0,
2011-05-18, 02:00:04,VALID,1009.783,VALID,0.0,VALID,102.711,VALID,0.0,VALID,23.634,VALID,2.0,VALID,0.0,
2011-05-18, 02:01:04,VALID,1009.755,VALID,0.5,VALID,102.681,VALID,0.0,VALID,23.653,VALID,2.0,VALID,0.0,
2011-05-18, 02:02:04,VALID,1009.791,VALID,0.0,VALID,102.666,VALID,0.0,VALID,23.694,VALID,2.0,VALID,0.0,
2011-05-18, 02:03:04,VALID,1009.787,VALID,0.0,VALID,102.635,VALID,0.0,VALID,23.713,VALID,2.0,VALID,0.0,
2011-05-18, 02:04:04,VALID,1009.803,VALID,0.0,VALID,102.658,VALID,0.106,VALID,23.673,VALID,2.0,VALID,0.32,
2011-05-18, 02:05:04,VALID,1009.797,VALID,0.0,VALID,102.666,VALID,0.106,VALID,23.673,VALID,2.0,VALID,0.33,
2011-05-18, 02:06:04,VALID,1009.774,VALID,0.0,VALID,102.658,VALID,0.0,VALID,23.673,VALID,2.0,VALID,0.231,
2011-05-18, 02:07:04,VALID,1009.799,VALID,0.0,VALID,102.635,VALID,0.0,VALID,23.733,VALID,2.0,VALID,0.204,
2011-05-18, 02:08:04,VALID,1009.806,VALID,0.5,VALID,102.627,VALID,0.0,VALID,23.712,VALID,2.0,VALID,0.187,
2011-05-18, 02:09:04,VALID,1009.805,VALID,0.0,VALID,102.612,VALID,0.0,VALID,23.731,VALID,2.0,VALID,0.25,
2011-05-18, 02:10:04,VALID,1009.806,VALID,0.0,VALID,102.62,VALID,0.0,VALID,23.752,VALID,2.0,VALID,0.05,
2011-05-18, 02:11:04,VALID,1009.806,VALID,0.0,VALID,102.589,VALID,0.0,VALID,23.752,VALID,2.0,VALID,0.0,
2011-05-18, 02:12:04,VALID,1009.782,VALID,0.0,VALID,102.589,VALID,0.0,VALID,23.752,VALID,2.0,VALID,0.13,
2011-05-18, 02:13:04,VALID,1009.78,VALID,0.5,VALID,102.612,VALID,0.0,VALID,23.752,VALID,2.0,VALID,0.0,
2011-05-18, 02:14:04,VALID,1009.767,VALID,0.0,VALID,102.605,VALID,0.0,VALID,23.772,VALID,2.0,VALID,0.0,
2011-05-18, 02:15:04,VALID,1009.72,VALID,0.0,VALID,102.589,VALID,0.0,VALID,23.791,VALID,2.0,VALID,0.419,
2011-05-18, 02:16:04,VALID,1009.72,VALID,0.0,VALID,102.597,VALID,0.0,VALID,23.791,VALID,290.0,VALID,0.279,
2011-05-18, 02:17:04,VALID,1009.685,VALID,0.0,VALID,102.582,VALID,0.0,VALID,23.772,VALID,290.0,VALID,0.321,
2011-05-18, 02:18:04,VALID,1009.664,VALID,0.0,VALID,102.597,VALID,0.0,VALID,23.772,VALID,290.0,VALID,0.157,
2011-05-18, 02:19:04,VALID,1009.659,VALID,0.0,VALID,102.589,VALID,0.0,VALID,23.791,VALID,290.0,VALID,0.289,
2011-05-18, 02:20:04,VALID,1009.634,VALID,0.0,VALID,102.582,VALID,0.0,VALID,23.791,VALID,290.0,VALID,0.323,
2011-05-18, 02:21:04,VALID,1009.605,VALID,0.5,VALID,102.605,VALID,0.0,VALID,23.772,VALID,348.0,VALID,0.57,
2011-05-18, 02:22:04,VALID,1009.616,VALID,0.0,VALID,102.612,VALID,0.0,VALID,23.752,VALID,17.0,VALID,0.446,
2011-05-18, 02:23:04,VALID,1009.627,VALID,0.0,VALID,102.627,VALID,0.0,VALID,23.752,VALID,17.0,VALID,0.378,
2011-05-18, 02:24:04,VALID,1009.626,VALID,0.0,VALID,102.627,VALID,0.0,VALID,23.752,VALID,17.0,VALID,0.295,
2011-05-18, 02:25:04,VALID,1009.637,VALID,0.0,VALID,102.605,VALID,0.0,VALID,23.712,VALID,15.0,VALID,0.538,
2011-05-18, 02:26:04,VALID,1009.659,VALID,0.0,VALID,102.605,VALID,0.0,VALID,23.733,VALID,15.0,VALID,0.623,
2011-05-18, 02:27:04,VALID,1009.676,VALID,0.0,VALID,102.612,VALID,0.0,VALID,23.733,VALID,15.0,VALID,0.0,
2011-05-18, 02:28:04,VALID,1009.655,VALID,0.0,VALID,102.589,VALID,0.0,VALID,23.733,VALID,15.0,VALID,0.0,
2011-05-18, 02:29:04,VALID,1009.686,VALID,0.0,VALID,102.589,VALID,0.0,VALID,23.752,VALID,15.0,VALID,0.291,
2011-05-18, 02:30:04,VALID,1009.694,VALID,0.0,VALID,102.566,VALID,0.0,VALID,23.752,VALID,15.0,VALID,0.264,
2011-05-18, 02:31:04,VALID,1009.703,VALID,0.0,VALID,102.551,VALID,0.0,VALID,23.772,VALID,15.0,VALID,0.296,
2011-05-18, 02:32:04,VALID,1009.714,VALID,0.0,VALID,102.544,VALID,0.0,VALID,23.791,VALID,15.0,VALID,0.186,
2011-05-18, 02:33:04,VALID,1009.701,VALID,0.0,VALID,102.551,VALID,0.0,VALID,23.791,VALID,15.0,VALID,0.0,
2011-05-18, 02:34:04,VALID,1009.737,VALID,0.0,VALID,102.551,VALID,0.0,VALID,23.791,VALID,15.0,VALID,0.0,
2011-05-18, 02:35:04,VALID,1009.722,VALID,0.0,VALID,102.528,VALID,0.0,VALID,23.791,VALID,15.0,VALID,0.0,
2011-05-18, 02:36:04,VALID,1009.745,VALID,0.0,VALID,102.566,VALID,0.0,VALID,23.772,VALID,15.0,VALID,0.0,
2011-05-18, 02:37:04,VALID,1009.724,VALID,0.0,VALID,102.582,VALID,0.0,VALID,23.772,VALID,15.0,VALID,0.0,
2011-05-18, 02:38:04,VALID,1009.713,VALID,0.0,VALID,102.597,VALID,0.0,VALID,23.772,VALID,15.0,VALID,0.0,
2011-05-18, 02:39:04,VALID,1009.699,VALID,0.0,VALID,102.582,VALID,0.0,VALID,23.772,VALID,15.0,VALID,0.0,
2011-05-18, 02:40:04,VALID,1009.709,VALID,0.0,VALID,102.574,VALID,0.0,VALID,23.772,VALID,15.0,VALID,0.0,
2011-05-18, 02:41:04,VALID,1009.729,VALID,0.0,VALID,102.559,VALID,0.0,VALID,23.772,VALID,15.0,VALID,0.214,
2011-05-18, 02:42:04,VALID,1009.725,VALID,0.0,VALID,102.544,VALID,0.0,VALID,23.791,VALID,15.0,VALID,0.246,
2011-05-18, 02:43:04,VALID,1009.76,VALID,0.0,VALID,102.521,VALID,0.0,VALID,23.811,VALID,356.0,VALID,0.427,
2011-05-18, 02:44:04,VALID,1009.773,VALID,0.0,VALID,102.521,VALID,0.0,VALID,23.79,VALID,322.0,VALID,0.301,
2011-05-18, 02:45:04,VALID,1009.82,VALID,0.0,VALID,102.521,VALID,0.0,VALID,23.83,VALID,322.0,VALID,0.455,
2011-05-18, 02:46:04,VALID,1009.847,VALID,0.0,VALID,102.513,VALID,0.0,VALID,23.85,VALID,322.0,VALID,0.0,
2011-05-18, 02:47:04,VALID,1009.816,VALID,0.0,VALID,102.498,VALID,0.0,VALID,23.848,VALID,242.0,VALID,0.099,
2011-05-18, 02:48:04,VALID,1009.85,VALID,0.0,VALID,102.49,VALID,0.0,VALID,23.869,VALID,242.0,VALID,0.006,
2011-05-18, 02:49:04,VALID,1009.836,VALID,0.0,VALID,102.467,VALID,0.0,VALID,23.889,VALID,242.0,VALID,0.0,
2011-05-18, 02:50:04,VALID,1009.87,VALID,0.0,VALID,102.46,VALID,0.0,VALID,23.928,VALID,251.0,VALID,0.125,
2011-05-18, 02:51:04,VALID,1009.875,VALID,0.0,VALID,102.467,VALID,0.0,VALID,23.928,VALID,285.0,VALID,0.225,
2011-05-18, 02:52:04,VALID,1009.891,VALID,0.0,VALID,102.475,VALID,0.0,VALID,23.908,VALID,269.0,VALID,0.643,
2011-05-18, 02:53:04,VALID,1009.878,VALID,0.0,VALID,102.49,VALID,0.0,VALID,23.908,VALID,308.0,VALID,0.478,
2011-05-18, 02:54:04,VALID,1009.899,VALID,0.0,VALID,102.505,VALID,0.0,VALID,23.889,VALID,322.0,VALID,0.524,
2011-05-18, 02:55:04,VALID,1009.93,VALID,0.0,VALID,102.521,VALID,0.0,VALID,23.91,VALID,305.0,VALID,0.355,
2011-05-18, 02:56:04,VALID,1009.933,VALID,0.0,VALID,102.513,VALID,0.106,VALID,23.887,VALID,310.0,VALID,0.243,
2011-05-18, 02:57:04,VALID,1009.946,VALID,0.0,VALID,102.505,VALID,0.106,VALID,23.885,VALID,310.0,VALID,0.046,
2011-05-18, 02:58:04,VALID,1009.924,VALID,0.0,VALID,102.49,VALID,0.106,VALID,23.887,VALID,313.0,VALID,0.404,
2011-05-18, 02:59:04,VALID,1009.923,VALID,0.0,VALID,102.521,VALID,0.106,VALID,23.868,VALID,304.0,VALID,0.822,
2011-05-18, 03:00:04,VALID,1009.945,VALID,0.0,VALID,102.536,VALID,0.0,VALID,23.848,VALID,304.0,VALID,1.519,
2011-05-18, 03:01:04,VALID,1009.913,VALID,0.0,VALID,102.513,VALID,0.106,VALID,23.868,VALID,310.0,VALID,0.454,
2011-05-18, 03:02:04,VALID,1009.913,VALID,0.0,VALID,102.505,VALID,0.0,VALID,23.846,VALID,324.0,VALID,0.0,
2011-05-18, 03:03:04,VALID,1009.92,VALID,0.0,VALID,102.521,VALID,0.106,VALID,23.868,VALID,293.0,VALID,0.231,
2011-05-18, 03:04:04,VALID,1009.917,VALID,0.0,VALID,102.505,VALID,0.0,VALID,23.868,VALID,328.0,VALID,0.42,
2011-05-18, 03:05:04,VALID,1009.925,VALID,0.0,VALID,102.498,VALID,0.106,VALID,23.868,VALID,327.0,VALID,0.0,
2011-05-18, 03:06:04,VALID,1009.926,VALID,0.0,VALID,102.513,VALID,0.0,VALID,23.868,VALID,327.0,VALID,0.0,
2011-05-18, 03:07:04,VALID,1009.938,VALID,0.0,VALID,102.498,VALID,0.0,VALID,23.868,VALID,327.0,VALID,0.092,
2011-05-18, 03:08:04,VALID,1009.924,VALID,0.0,VALID,102.49,VALID,0.0,VALID,23.887,VALID,327.0,VALID,0.02,
2011-05-18, 03:09:04,VALID,1009.957,VALID,0.0,VALID,102.49,VALID,0.0,VALID,23.889,VALID,327.0,VALID,0.0,
2011-05-18, 03:10:04,VALID,1009.941,VALID,0.0,VALID,102.498,VALID,0.0,VALID,23.887,VALID,327.0,VALID,0.029,
2011-05-18, 03:11:04,VALID,1009.967,VALID,0.0,VALID,102.521,VALID,0.0,VALID,23.889,VALID,327.0,VALID,0.0,
2011-05-18, 03:12:04,VALID,1009.997,VALID,0.0,VALID,102.505,VALID,0.0,VALID,23.889,VALID,327.0,VALID,0.0,
2011-05-18, 03:13:04,VALID,1009.992,VALID,0.0,VALID,102.498,VALID,0.0,VALID,23.869,VALID,327.0,VALID,0.0,
2011-05-18, 03:14:04,VALID,1010.012,VALID,0.0,VALID,102.475,VALID,0.0,VALID,23.889,VALID,327.0,VALID,0.0,
2011-05-18, 03:15:04,VALID,1010.057,VALID,0.0,VALID,102.452,VALID,0.0,VALID,23.907,VALID,327.0,VALID,0.0,
2011-05-18, 03:16:04,VALID,1010.067,VALID,0.0,VALID,102.498,VALID,0.0,VALID,23.908,VALID,327.0,VALID,0.0,
2011-05-18, 03:17:04,VALID,1010.073,VALID,0.0,VALID,102.46,VALID,0.0,VALID,23.928,VALID,327.0,VALID,0.195,
2011-05-18, 03:18:04,VALID,1010.078,VALID,0.0,VALID,102.444,VALID,0.0,VALID,23.967,VALID,327.0,VALID,0.0,
2011-05-18, 03:19:04,VALID,1010.082,VALID,0.0,VALID,102.46,VALID,0.0,VALID,23.967,VALID,17.0,VALID,0.494,
2011-05-18, 03:20:04,VALID,1010.101,VALID,0.5,VALID,102.513,VALID,0.0,VALID,23.928,VALID,17.0,VALID,0.429,
2011-05-18, 03:21:04,VALID,1010.084,VALID,0.0,VALID,102.482,VALID,0.0,VALID,23.947,VALID,17.0,VALID,0.379,
2011-05-18, 03:22:04,VALID,1010.098,VALID,0.0,VALID,102.475,VALID,0.0,VALID,23.928,VALID,17.0,VALID,0.4,
2011-05-18, 03:23:04,VALID,1010.09,VALID,0.0,VALID,102.513,VALID,0.0,VALID,23.908,VALID,17.0,VALID,0.412,
2011-05-18, 03:24:04,VALID,1010.092,VALID,0.0,VALID,102.528,VALID,0.0,VALID,23.908,VALID,17.0,VALID,0.286,
2011-05-18, 03:25:04,VALID,1010.111,VALID,0.5,VALID,102.513,VALID,0.0,VALID,23.908,VALID,17.0,VALID,0.0,
2011-05-18, 03:26:04,VALID,1010.089,VALID,0.0,VALID,102.49,VALID,0.0,VALID,23.908,VALID,17.0,VALID,0.0,
2011-05-18, 03:27:04,VALID,1010.119,VALID,0.0,VALID,102.49,VALID,0.0,VALID,23.908,VALID,17.0,VALID,0.0,
2011-05-18, 03:28:04,VALID,1010.125,VALID,0.0,VALID,102.513,VALID,0.0,VALID,23.908,VALID,17.0,VALID,0.0,
2011-05-18, 03:29:04,VALID,1010.126,VALID,0.5,VALID,102.513,VALID,0.0,VALID,23.928,VALID,17.0,VALID,0.0,
2011-05-18, 03:30:04,VALID,1010.117,VALID,0.0,VALID,102.49,VALID,0.0,VALID,23.889,VALID,17.0,VALID,0.448,
2011-05-18, 03:31:04,VALID,1010.131,VALID,0.0,VALID,102.49,VALID,0.0,VALID,23.889,VALID,17.0,VALID,0.006,
2011-05-18, 03:32:04,VALID,1010.149,VALID,0.5,VALID,102.482,VALID,0.0,VALID,23.908,VALID,17.0,VALID,0.0,
2011-05-18, 03:33:04,VALID,1010.139,VALID,0.0,VALID,102.444,VALID,0.0,VALID,23.908,VALID,17.0,VALID,0.0,
2011-05-18, 03:34:04,VALID,1010.142,VALID,0.0,VALID,102.498,VALID,0.0,VALID,23.908,VALID,17.0,VALID,0.0,
2011-05-18, 03:35:04,VALID,1010.155,VALID,0.5,VALID,102.482,VALID,0.0,VALID,23.889,VALID,17.0,VALID,0.0,
2011-05-18, 03:36:04,VALID,1010.169,VALID,0.0,VALID,102.46,VALID,0.0,VALID,23.908,VALID,17.0,VALID,0.439,
2011-05-18, 03:37:04,VALID,1010.203,VALID,0.5,VALID,102.452,VALID,0.0,VALID,23.949,VALID,76.0,VALID,0.684,
2011-05-18, 03:38:04,VALID,1010.245,VALID,0.0,VALID,102.437,VALID,0.0,VALID,23.947,VALID,114.0,VALID,0.496,
2011-05-18, 03:39:04,VALID,1010.276,VALID,0.5,VALID,102.414,VALID,0.0,VALID,23.947,VALID,160.0,VALID,0.937,
2011-05-18, 03:40:04,VALID,1010.34,VALID,0.0,VALID,102.421,VALID,0.0,VALID,23.967,VALID,186.0,VALID,0.978,